THORAD AGENA D DEB, 4685

Orbit data source: Space-Track

THORAD AGENA D DEB, 4685 is space debris in SSO originally from a launch on Wed, 08 Apr 1970 UTC launched from the Air Force Western Test Range (AFWTR). Debris objects in space refer to the collection of defunct objects orbiting the Earth. Examples of debris include non-operational satellites, rocket bodies, and fragments generated from explosions, collisions, or faulty payload assembly.

Loading next visibility...
Identifier
4685, 1970-025BJ
Orbit
SSO
Country
Flag of USUS
Related business
Manufacturer
Unknown
Mission
Spacecraft
Bus & Motor
Unknown
Mass
Unknown
Launch date (UTC)
1970-04-08 (56 years ago)
Launch vehicle
Unknown
Launch site
Air Force Western Test Range (AFWTR)
Object type
Payload
Rocket body
Debris
Shape & HBR
Unknown shape, 0.2 m
Radar Cross Section
Medium (>0.1 m² and <1 m²)

Expand to show TLE details & history
Last TLE update: 8 hours ago

TLE from 8 hours ago
0 THORAD AGENA D DEB
1  4685U 70025BJ  26124.16884501  .00000215  00000-0  36633-3 0  9997
2  4685  99.9263 208.7499 0053412  39.9965 349.9365 13.56577268763542
Epoch: 2026-05-04T04:03Z
TLE epoch observation values (Epoch: 2026-05-04T04:03:08.208Z)
Latitude
29.38356°
Longitude
-79.72202°
Altitude
1,012.647 km
Speed
7.367 km/s
True Right ascension
13h 32m 29s
True Declination
29° 14' 31"
Sunlit
Object was in full shadow at epoch
Visualization orbit readout
Latitude
Unknown
Longitude
Unknown
Altitude
Unknown
Speed
Unknown
Apparent Right ascension
Unknown
Apparent Declination
Unknown
Sunlit
N/A
Visualization observer readout
Local Sidereal Time
19:35:53
Azimuth
Unknown
Elevation
Unknown
Doppler factor
Unknown
Orbital elements
Apogee altitude
1,085.112 km
Perigee altitude
1,005.811 km
Semi-major axis
7,423.598 km
Eccentricity
0.00534
Inclination
99.9263°
RAAN
208.7499°
Arg. of periapsis
39.9965°
True anomaly
349.82884°
Mean anomaly
349.9365°
Eccentric anomaly
349.88274°
Mean motion
3.39329 °/min
Orbital period
106.09 mins
BSTAR
0.00036633
Loading maneuver chart data...
Computing Atmospheric mass density...
Loading historical data...
Loading historical data...
Loading historical data...
Loading historical data...
Loading historical data...
Loading historical data...
Loading historical data...

Documentation

Showing up to 5 results
|